Miscellaneous Local Product
Issued by NWS North Platte, NE

Home | Current Version | Previous Version | Graphics & Text | Print | Product List | Glossary On
Versions: 1 2 3 4 5 6 7 8 9 10 11 12 13 14 15 16 17 18 19 20 21 22 23 24 25 26 27 28 29 30 31 32 33 34 35 36 37 38 39 40 41 42 43 44 45 46 47 48 49 50
000
AXUS43 KLBF 111210
MISLBF


WESTERN AND NORTH CENTRAL NEBRASKA HOURLY WEATHER ROUNDUP
NATIONAL WEATHER SERVICE NORTH PLATTE NE
600 AM CST MON DEC 11 2017

NOTE: "FAIR" INDICATES FEW OR NO CLOUDS BELOW 12,000 FEET WITH NO
SIGNIFICANT WEATHER AND/OR OBSTRUCTIONS TO VISIBILITY.

NOTE: STATIONS NOT REPORTING VARIABLES SUCH AS SKY/WEATHER OR
PRESSURE ARE PROVIDED BY RAWS AND APRS NETWORKS AND ARE NOT UNDER
NATIONAL WEATHER SERVICE QUALITY CONTROL.

...OBSERVATIONS IN AND NEAR THE EASTERN PANHANDLE OF NEBRASKA...

CITY           SKY/WX    TMP DP  RH WIND       PRES   REMARKS
PINE RIDGE     CLOUDY    34  20  56 W5        30.20R WCI  30
GORDON         FAIR      40  18  41 NW13G18   30.17S WCI  33
CHADRON        CLOUDY    40  15  36 W13       30.23S WCI  32
ALLIANCE       CLOUDY    38  14  37 W13       30.22R WCI  30
SIDNEY         CLOUDY    36   7  29 W14       30.24F WCI  27
CRESCENT LAKE    N/A     40  13  32 W10         N/A  WCI  33
$$

...OBSERVATIONS IN NORTHERN NEBRASKA AND FAR SOUTHERN SOUTH DAKOTA...

CITY           SKY/WX    TMP DP  RH WIND       PRES   REMARKS
WINNER         FAIR      45  22  40 NW28G37   30.04R
VALENTINE      PTCLDY    44  17  33 W13       30.07S
THEDFORD       MOCLDY    50  18  27 NW29G38   30.11F
AINSWORTH      CLOUDY    42  19  39 W12       30.05S
O`NEILL        CLEAR     47  19  33 NW25G35   30.00R
ORD            CLOUDY    47  16  29 NW18G28   30.03S
BROKEN BOW     CLOUDY    48  16  27 NW21G29   30.08S
VALENTINE NWR    N/A     45  16  30 NW15G22     N/A
HALSEY           N/A     46  15  28 NW9G18      N/A
BUTTE            N/A     43  24  46 NW30G43     N/A
CHAMBERS         N/A     44  18  34 W3          N/A
EWING            N/A     47  20  34 NW17G30     N/A
$$

...OBSERVATIONS IN SOUTHWEST NEBRASKA AND FAR NORTHEAST COLORADO...

CITY           SKY/WX    TMP DP  RH WIND       PRES   REMARKS
WRAY           FAIR      32   5  32 NW12      30.25S WCI  23
HOLYOKE        FAIR      34   9  35 W12       30.24S WCI  25
IMPERIAL       CLOUDY    40   8  26 W15       30.21R WCI  32
OGALLALA       CLOUDY    35  11  37 SW15      30.20F WCI  25
NORTH PLATTE   CLOUDY    27  18  69 NW9       30.17S WCI  18
MCCOOK         CLOUDY    37  11  34 NW14      30.18R WCI  28
LEXINGTON      PTCLDY    35  15  43 W14       30.13S WCI  26
STAPLETON        N/A     43  17  34 CALM        N/A
GOTHENBURG       N/A     34  15  44 W6          N/A  WCI  29
CALLAWAY         N/A     45  18  33 NW9         N/A
$$

...OBSERVATIONS IN CENTRAL LINCOLN COUNTY AREA...

CITY           SKY/WX    TMP DP  RH WIND       PRES   REMARKS
N.P. AIRPORT   CLOUDY    27  18  69 NW9       30.17S WCI  18
N.P. DOWNTOWN    N/A     35  16  46 CALM        N/A
N.P. SOUTHEAST   N/A     36  15  42 CALM        N/A
N.P. HILLCREST   N/A     31  16  54 W7          N/A  WCI  24
$$

...SOME OBSERVATIONS FROM AROUND THE REGION...

CITY           SKY/WX    TMP DP  RH WIND       PRES   REMARKS
DENVER         CLOUDY    37  -3  18 SW15      30.31S WCI  28
GRAND JUNCTION CLOUDY    20   3  48 SE3       30.54F
LARAMIE        CLOUDY    21   3  45 W14       30.37F WCI   8
CHEYENNE       CLOUDY    39  -1  18 NW12      30.30S WCI  32
CASPER         CLOUDY    31  12  45 SW10      30.38S WCI  22
BISMARCK       CLOUDY    43  33  68 NW20G32   30.00R
RAPID CITY     CLOUDY    47  11  23 NW36G47   30.15F
PIERRE         CLOUDY    44  28  53 NW31G41   30.02R
SIOUX FALLS    CLOUDY    39  27  62 NW21G35   29.83R WCI  29
OMAHA          CLOUDY    43  17  35 W13       29.90F
GRAND ISLAND   CLOUDY    38  16  40 W15       30.05S WCI  29
SCOTTSBLUFF    CLOUDY    29  12  49 NW13      30.26F WCI  19
KANSAS CITY    CLEAR     36  19  50 SW10      29.95F WCI  28
HILL CITY      CLEAR     40   9  28 NW9       30.15S WCI  34
WICHITA        CLEAR     47  11  23 W16       30.12R
DODGE CITY     CLOUDY    33   6  32 NW16      30.19S WCI  23
OKLAHOMA CITY  PTCLDY    38  16  40 CALM      30.19F
DALLAS         PTCLDY    39  26  59 S3        30.23S
AMARILLO       CLOUDY    31   8  38 W7        30.28S WCI  24
$$




USA.gov is the U.S. government's official web portal to all federal, state and local government web resources and services.